Location: ?
(35.4068°N, 139.1954°E)
Time: 15:36:22
(UTC+00:00)

Daily predictions for brighter satellites

Satellite Brightness Start Highest point End
(mag) Time Altitude Azimuth Time Altitude Azimuth Time Altitude Azimuth
Cosmos 1656 4.5 12:04:04 10° N 12:09:03 35° ENE 12:10:03 32° E
Cosmos 1733 3.2 12:06:52 10° N 12:09:59 66° NW 12:09:59 66° NW
Terra 1.7 12:10:43 59° S 12:11:38 83° WSW 12:16:21 10° NNW
Cosmos 1269 Rocket 3.9 12:11:04 56° SSE 12:11:57 67° ESE 12:17:11 10° NNE
Spot 1 4.0 12:07:56 10° NNE 12:11:55 65° E 12:11:55 65° E
Cosmos 1726 4.2 12:10:13 10° NW 12:12:13 16° W 12:12:57 15° WSW
Okean O Rocket 4.4 12:13:03 10° WSW 12:14:11 11° W 12:15:20 10° WNW
NOSS 2-1 (C) 4.1 12:14:08 10° NNW 12:18:29 63° ENE 12:19:17 55° E
Cosmos 1340 Rocket 4.3 12:16:58 23° WSW 12:18:41 34° WNW 12:22:20 10° NNW
Cosmos 1092 Rocket 4.0 12:18:47 50° SSE 12:20:14 65° E 12:26:29 10° NNE
Meteor 1-18 Rocket 4.3 12:20:46 55° SE 12:21:47 65° E 12:27:38 10° NNE
Lacrosse 4 Rocket 2.3 12:18:31 10° N 12:22:00 39° NE 12:22:00 39° NE
DELTA 2 R/B (1) 3.8 12:16:56 10° W 12:22:31 69° NNW 12:27:03 16° ENE
Cosmos 2195 Rocket 4.3 12:25:07 48° S 12:26:57 89° E 12:33:05 10° N
Cosmos 1743 Rocket 4.3 12:28:47 10° NNW 12:33:00 44° W 12:33:29 43° WSW
GEOS 3 Rocket 3.4 12:31:04 10° NE 12:36:13 78° ESE 12:36:17 78° SE
Cosmos 1992 Rocket 3.9 12:32:45 10° NNW 12:37:59 77° ENE 12:38:04 76° E
MOS 1 Rocket 3.7 12:38:16 58° SW 12:38:57 64° W 12:44:15 10° NNW
Cosmos 1805 4.3 12:37:27 10° NNW 12:40:06 42° NW 12:40:06 42° NW
OAO 3 Rocket 4.1 12:38:14 10° WSW 12:41:15 39° WSW 12:41:15 39° WSW
Landsat 5 4.5 12:46:51 10° N 12:50:00 40° NW 12:50:00 40° NW
Spot 2 Rocket 4.5 12:51:52 35° WSW 12:52:28 37° W 12:57:07 10° NNW
Cosmos 1140 Rocket 3.9 12:54:50 53° NE 12:54:50 53° NE 12:58:58 10° NNE
ARIANE 5 R/B 4.2 12:55:39 26° NE 12:55:39 26° NE 12:58:12 10° N
Cosmos 1975 4.2 12:55:15 10° NNW 12:57:54 36° NW 12:57:54 36° NW
FALCON 9 R/B 4.0 12:52:26 10° W 12:59:10 55° SSW 13:04:21 41° SSE
Cosmos 1328 Rocket 4.4 13:00:22 46° NW 13:00:22 46° NW 13:03:56 10° N
Cosmos 1697 Rocket 3.5 12:57:25 10° N 13:02:34 39° ENE 13:02:34 39° ENE
BREEZE-M DEB (TANK) 3.8 13:01:39 29° W 13:03:33 59° NNW 13:14:42 10° NE
MetOp-A 4.3 13:04:11 58° WNW 13:04:11 58° WNW 13:08:27 10° NNW
Meteor 2-12 Rocket 4.3 13:10:01 84° E 13:10:02 84° E 13:16:12 10° N
Chandra Rocket (1) 3.9 12:51:19 10° W 13:11:33 54° SSW 13:12:00 53° S
Cosmos 1980 Rocket 3.8 13:08:07 10° N 13:12:31 22° ENE 13:12:56 22° ENE
USA 59 Rocket 1.4 13:10:15 10° NW 13:14:03 42° W 13:14:03 42° W
ATLAS CENTAUR R/B 4.4 13:08:49 10° NW 13:22:48 71° NE 13:26:47 44° ESE
Cosmos 44 Rocket 4.3 13:29:14 10° NNW 13:32:38 43° N 13:32:38 43° N
Cosmos 407 Rocket 4.1 13:35:45 55° N 13:35:45 55° N 13:39:52 10° NNE
Cosmos 1833 Rocket 4.2 13:39:44 25° W 13:41:32 30° WNW 13:46:27 10° N
COSMOS 2406 4.1 13:45:16 41° NE 13:45:16 41° NE 13:49:09 10° NNE
S3M 4.2 13:39:57 10° N 13:45:48 64° NE 13:45:48 64° NE
USA 281 3.8 13:46:43 45° WSW 13:46:43 45° WSW 13:52:53 10° NW
Lacrosse 5 rocket 4.1 13:48:08 10° N 13:50:16 14° NNE 13:50:17 14° NNE
Cosmos 1553 Rocket 4.3 13:46:28 10° NNW 13:52:01 55° WNW 13:52:01 55° WNW
Cosmos 2082 Rocket 2.7 13:54:59 55° NNE 13:54:59 55° NNE 13:59:24 10° NNE
USA 267 4.5 13:51:11 10° ENE 13:54:27 28° E 13:54:27 28° E
H-2A R/B 4.5 14:01:56 27° NNW 14:01:56 27° NNW 14:03:57 10° NNW
Cosmos 2251 Rocket 4.5 14:02:50 43° NW 14:02:50 43° NW 14:07:04 10° N
ALOS 2 4.4 14:05:20 29° N 14:05:20 29° N 14:07:35 10° N
Cosmos 2315 Rocket 4.3 13:59:48 10° N 14:05:24 59° NE 14:05:24 59° NE
Meteor 2-10 Rocket 4.5 14:08:51 10° N 14:13:22 48° NE 14:13:22 48° NE
NOSS 3-4 (A) 3.8 14:09:08 10° NNW 14:16:26 87° ENE 14:16:38 85° ESE
NOSS 3-4 (C) 3.8 14:09:14 10° NNW 14:16:32 87° ENE 14:16:45 84° ESE
Cosmos 2322 Rocket 4.2 14:42:57 10° NNE 14:46:58 19° ENE 14:48:31 17° ENE
H-2A R/B 4.0 14:43:36 10° N 14:45:42 28° N 14:45:42 28° N
Cosmos 1980 Rocket 3.5 14:51:17 10° NW 14:54:41 33° WNW 14:54:41 33° WNW
Cosmos 2333 Rocket 4.5 14:57:37 10° NNE 15:01:26 18° NE 15:04:02 14° E
Lacrosse 5 rocket 4.3 15:25:03 10° NW 15:25:04 10° NW 15:25:04 10° NW
Cosmos 1745 Rocket 4.0 15:31:30 76° NNE 15:31:30 76° NNE 15:37:16 10° N
Cosmos 2219 Rocket 4.5 15:31:31 10° NNE 15:35:26 19° ENE 15:39:20 10° E
SL-16 R/B 2.6 15:30:48 10° NNW 15:35:26 60° N 15:35:26 60° N
SJ 16-02 3.0 15:41:51 31° NNE 15:41:51 31° NNE 15:44:10 10° NNE
USA 267 3.8 15:34:00 10° NE 15:40:16 51° NW 15:41:46 43° WNW
Cosmos 2360 Rocket 2.9 15:43:42 10° N 15:49:10 47° ENE 15:49:47 45° E
RESURS DK-1 4.3 15:50:50 10° N 15:53:23 28° NNE 15:53:23 28° NNE
Nadezhda 1 Rocket 4.1 15:49:51 10° N 15:55:48 68° WNW 15:55:48 68° WNW
ATLAS CENTAUR R/B 3.8 16:01:54 15° NE 16:01:54 15° NE 16:02:40 10° NE
NPP 4.0 16:06:14 10° NNE 16:11:27 56° E 16:11:27 56° E
USA 234 4.4 16:06:11 10° ESE 16:12:15 42° NE 16:18:20 10° NNW
MSX 4.1 16:10:12 10° NNE 16:15:48 55° E 16:16:12 53° ESE
Meteor 1-24 Rocket 3.7 16:25:08 79° S 16:25:34 88° E 16:31:34 10° N
ALOS 4.4 16:23:50 10° NE 16:26:49 17° E 16:27:59 16° ESE
Cosmos 1066 4.5 16:28:44 86° WNW 16:28:44 86° WNW 16:34:11 10° N
Cosmos 2322 Rocket 2.7 16:25:48 10° NNW 16:30:16 47° WNW 16:30:16 47° WNW
Cosmos 2297 Rocket 3.9 16:32:04 20° SE 16:33:45 23° E 16:38:03 10° NE
MOZ.5/SAFIR/RUBIN 5/SL-8 4.2 16:36:10 54° NW 16:36:10 54° NW 16:39:57 10° NNW
Resurs 1-4 Rocket 2.0 16:31:05 10° NNE 16:36:21 75° ESE 16:36:40 72° SE
Cosmos 2098 Rocket 3.9 16:31:29 10° N 16:37:34 85° E 16:39:06 55° SSE
H-2A R/B 4.2 16:39:18 10° N 16:42:12 44° NNW 16:42:12 44° NNW
CZ-2D R/B 2.0 16:37:51 10° NNE 16:43:18 83° ESE 16:43:53 71° S
CZ-4C R/B 3.7 16:43:04 16° ESE 16:43:34 16° ESE 16:46:23 10° ENE
SL-4 R/B 4.5 16:43:22 14° NW 16:44:57 17° NNW 16:47:49 10° NNE
Cosmos 2333 Rocket 2.2 16:40:29 10° NNW 16:45:58 61° W 16:45:58 61° W
Cosmos 1892 3.7 16:48:58 40° NE 16:48:58 40° NE 16:51:26 10° NNE
OAO 1 Rocket 4.2 16:48:06 82° SSW 16:48:12 83° S 16:53:30 10° E
Tiangong 0.3 16:49:32 23° NNE 16:49:32 23° NNE 16:51:26 10° NE
Cosmos 839 Rocket 3.9 16:44:34 10° NNW 16:51:17 86° WSW 16:54:05 35° SSE
CRYOSAT 2 4.3 16:52:56 10° N 16:57:47 65° W 16:57:54 64° W
IDEFIX/ARIANE 42P 2.9 16:54:24 10° N 16:59:27 48° WNW 16:59:53 47° W
Cosmos 2181 Rocket 3.9 16:53:18 10° NNW 16:59:33 69° W 17:01:01 52° SSW
SL-24 R/B 4.2 17:00:47 69° S 17:01:22 86° W 17:06:14 10° N
ATLAS 2AS CENTAUR R/B 2.6 16:57:33 10° NNW 17:04:19 84° ENE 17:10:54 10° SSE
Cosmos 1328 4.1 17:05:20 53° ESE 17:05:28 54° E 17:09:13 10° NNE
ADEOS II 2.0 17:00:54 10° NNE 17:06:10 88° ESE 17:07:23 54° SSW
Cosmos 1295 Rocket 4.3 17:04:24 48° SSW 17:06:13 82° W 17:12:20 10° N
COSMOS 2455 3.2 17:08:25 38° S 17:10:34 59° ESE 17:16:28 10° NE
Cosmos 1503 Rocket 4.0 17:13:01 47° S 17:14:35 79° ESE 17:19:58 10° NNE
Meteor 2-11 Rocket 4.4 17:12:45 38° S 17:15:17 85° E 17:21:22 10° N
SL-16 R/B 3.0 17:09:13 10° SSE 17:15:23 62° ENE 17:21:34 10° N
TRAILBLAZER 4.4 17:13:12 10° NW 17:17:46 72° WSW 17:18:38 55° S
Cosmos 2219 Rocket 2.2 17:14:12 10° NNW 17:19:43 57° WSW 17:21:15 43° SSW
Cosmos 158 Rocket 4.0 17:16:15 10° NNW 17:21:39 88° ENE 17:25:01 23° SSE
Cosmos 1674 Rocket 4.2 17:22:06 39° W 17:22:08 39° W 17:26:18 10° N
SAR-Lupe-1 4.4 17:20:02 10° NNE 17:23:33 57° E 17:24:04 50° SE
Cosmos 1610 Rocket 4.4 17:23:03 34° SSW 17:26:02 82° W 17:32:26 10° N
Cosmos 836 Rocket 4.4 17:22:00 10° NNW 17:27:12 90° E 17:30:56 19° SSE
CZ-2C R/B 2.8 17:28:10 42° SW 17:29:01 46° W 17:34:00 10° NNW
Cosmos 2322 3.6 17:23:32 10° NNW 17:29:14 85° WSW 17:34:38 11° SSE
FENGYUN 3A 3.8 17:24:29 10° N 17:29:45 59° WNW 17:31:34 39° SW
Cosmos 2360 Rocket 3.7 17:28:43 10° NW 17:31:29 19° W 17:31:29 19° W
Cosmos 1825 3.2 17:34:15 28° WNW 17:34:15 28° WNW 17:36:43 10° NNW
ATLAS CENTAUR R/B 3.2 17:36:54 13° NW 17:37:15 14° NW 17:39:07 10° NNW
BlueWalker 3 4.2 17:36:50 12° SE 17:38:02 14° SE 17:40:03 10° E
Cosmos 1777 Rocket 4.0 17:37:22 36° SSW 17:39:30 74° WNW 17:44:48 10° NNE
Cosmos 2151 Rocket 4.4 17:36:38 10° NNW 17:40:35 32° W 17:40:44 32° W
CZ-2C R/B 4.0 17:37:41 10° N 17:42:53 37° WNW 17:44:55 28° WSW
GENESIS II 3.9 17:42:22 51° SSW 17:43:11 82° ESE 17:46:51 10° NNE
AQUA 4.3 17:40:31 10° N 17:44:58 43° WNW 17:46:29 33° WSW
Cosmos 1354 Rocket 4.0 17:42:36 33° SSW 17:45:01 73° WNW 17:50:21 10° NNE
Sich 1 Rocket 4.5 17:43:48 10° NNW 17:47:39 29° W 17:47:59 29° W
Okean 2 Rocket 4.1 17:47:57 10° NNW 17:51:39 27° W 17:51:59 26° W
METEOR-M 4.4 17:47:08 10° NNE 17:52:27 66° ESE 17:56:54 15° S
Cosmos 2237 Rocket 3.3 17:47:46 10° N 17:53:13 45° ENE 17:58:34 10° SE
Cosmos 2227 Rocket 2.6 17:50:40 18° S 17:54:51 61° ESE 18:00:27 10° NNE
Atlas Centaur 2 1.9 17:53:24 32° SW 17:54:57 44° S 17:58:50 10° ESE
USA 234 3.3 17:48:44 10° SSE 17:55:05 52° SW 18:01:28 10° NW
COSMOS 2428 2.7 17:49:47 10° NNW 17:55:24 63° WSW 18:01:00 10° S
Envisat 3.1 17:51:49 10° NNE 17:56:54 74° ESE 18:01:01 16° S
Cosmos 2218 Rocket 4.3 17:51:50 10° S 17:58:07 68° E 18:04:23 10° NNE
Okean 1 Rocket 3.7 17:56:02 10° NNW 17:59:57 34° W 18:01:14 28° SW
Cosmos 405 Rocket 4.4 17:57:46 10° NW 17:59:40 17° WNW 17:59:40 17° WNW
Cosmos 1375 Rocket 4.5 17:54:04 10° NNW 18:00:37 71° WSW 18:07:03 10° SSE
Cosmos 773 Rocket 3.8 17:55:58 10° NNW 18:01:05 74° WSW 18:06:12 10° S
SL-24 R/B - RUBIN 2 4.4 17:55:52 10° NNW 18:02:25 89° ENE 18:08:19 10° SSE
Cosmos 1980 4.3 17:57:37 10° NNW 18:03:12 60° ENE 18:08:46 10° SE
ALOS 2.9 17:59:50 10° N 18:04:08 39° WNW 18:06:17 24° WSW
ATLAS 2A CENTAUR R/B 3.4 18:06:28 10° SSE 18:06:28 10° SSE 18:06:29 10° SSE
UNK 3.7 18:04:19 11° S 18:08:47 63° WSW 18:13:23 10° NNW
DNEPR-1 R/B 4.2 18:04:16 10° NW 18:10:15 53° WSW 18:15:06 10° S
Cosmos 990 Rocket 4.0 18:08:14 15° SSW 18:12:29 82° ESE 18:17:39 10° NNE
CZ-2C R/B 2.4 18:09:24 10° NNE 18:14:01 72° ESE 18:18:33 10° S
Cosmos 864 Rocket 4.5 18:09:11 10° S 18:15:25 85° W 18:21:46 10° N
Resurs 1-4 Rocket 4.1 18:13:27 10° NW 18:15:26 12° WNW 18:17:25 10° W
Cosmos 2297 Rocket 2.8 18:13:53 20° SW 18:17:26 42° WNW 18:22:46 10° N
IRS-1D 3.9 18:14:49 10° NNE 18:20:06 68° ESE 18:25:16 10° S
CZ-2D R/B 4.2 18:20:43 10° NW 18:22:30 12° WNW 18:24:16 10° W
Cosmos 1544 Rocket 4.3 18:21:05 10° N 18:25:27 55° E 18:29:48 10° SSE
Tiangong -0.5 18:22:59 10° NW 18:25:49 32° NNE 18:28:38 10° E
CZ-4 R/B 4.0 18:21:12 10° N 18:25:52 57° WNW 18:30:09 13° SSW
Cosmos 1821 Rocket 4.4 18:20:18 10° S 18:26:19 65° E 18:32:20 10° NNE
Cosmos 1975 Rocket 3.7 18:25:08 17° SW 18:27:55 36° W 18:31:54 10° NNW
Cosmos 2366 rocket 4.1 18:22:52 10° SSW 18:29:08 65° W 18:35:27 10° N
Aureole 1 Rocket 2.3 18:27:27 12° S 18:30:10 66° ESE 18:33:11 10° NNE
CZ-4C R/B 2.5 18:28:10 16° WSW 18:31:15 39° NW 18:36:04 10° NNE
YAOGAN 6 2.4 18:34:45 10° N 18:37:58 56° WNW 18:41:09 10° SSW
SL-12 R/B(2) 4.3 18:31:30 12° SW 18:38:44 73° NW 18:47:59 10° NNE
PAYLOAD A 4.0 18:37:37 10° N 18:42:31 67° WNW 18:47:35 10° SSW
ADEOS II 4.3 18:44:37 10° WNW 18:44:57 10° WNW 18:45:18 10° WNW
Cosmos 2228 3.2 18:47:41 10° N 18:52:01 80° E 18:56:20 10° S
ATLAS 2AS CENTAUR R/B 4.1 18:51:09 10° WNW 18:54:15 14° WSW 18:57:19 10° SW
Cosmos 1455 Rocket 4.4 18:50:59 10° NW 18:54:20 21° W 18:57:41 10° SW
Cosmos 1536 Rocket 3.6 18:51:58 10° S 18:56:23 76° W 19:00:51 10° N
COSMOS 2455 4.4 18:52:22 10° W 18:56:52 21° NW 19:01:23 10° N
NOSS 3-2 (A) 3.6 18:52:47 10° SSW 18:57:37 58° ESE 19:03:07 10° NE
Thor Agena Rocket 3.8 18:52:42 10° N 18:57:50 55° WNW 19:02:57 10° SSW
SL-16 R/B 3.9 18:55:17 10° SW 18:59:18 18° W 19:03:22 10° NW
Cosmos 1538 Rocket 4.0 18:56:57 10° NNW 19:02:09 87° WSW 19:07:20 10° SSE
Cosmos 1606 2.9 18:59:31 10° NNW 19:02:52 42° W 19:06:14 10° SSW
CENTAUR R/B 2.3 18:58:11 10° SW 19:03:27 77° WNW 19:09:57 10° NNE
Cosmos 1939 Rocket 4.0 19:00:21 10° NNE 19:04:13 46° E 19:08:04 10° S
